"TOA5","AWS1","CR1000","7964","CR1000.Std.14","CPU:AWS1_114.CR1","64363","TBL110"
"TIMESTAMP","RECORD","Wind_spd_WVc(1)","Wind_spd_WVc(2)","Air_Temp_Avg","Humidity_Avg","SW_upper_Wm2_Avg","Rain_Tot","Press_Avg","Issui_Tot","Depth_cm","SR50A_Raw","Quality","Ground_Temp_Avg(1)","Ground_Temp_Avg(2)","SW_lower_Wm2_Avg","Albedo_Avg","SWC_per(1)","SWC_per(2)","Period(1)","Period(2)"
"TS","RN","","","","","","","","","","","","","","","","","","",""
"","","WVc","WVc","Avg","Avg","Avg","Tot","Avg","Tot","Smp","Smp","Smp","Avg","Avg","Avg","Avg","Smp","Smp","Smp","Smp"
"2017-04-01 00:00:00",281725,0,0,-2.701,100,0.01179891,0,860.2936,0,107.8,2.113,211,0.738,1.267,0,0,52.49,60.56,33.91,35.81
"2017-04-01 00:10:00",281726,0,0,-2.674,100,0.04719562,0,860.0912,0,108.4,2.106,216,0.737,1.267,0,0,52.55,60.56,33.92,35.81
"2017-04-01 00:20:00",281727,0,0,-2.793,100,0.1337209,0,860.0153,0,108.4,2.107,197,0.744,1.268,0,0,52.55,60.56,33.92,35.81
"2017-04-01 00:30:00",281728,0,0,-2.886,100,0.2320452,0,859.9141,0.5,109.2,2.099,241,0.745,1.268,0,0,52.49,60.56,33.91,35.81
"2017-04-01 00:40:00",281729,0,0,-2.826,100,0.01573188,0,859.5558,0,109.9,2.092,291,0.75,1.273,0.02654491,0,52.55,60.56,33.92,35.81
"2017-04-01 00:50:00",281730,0,0,-2.777,100,0,0,859.6907,0,108.2,2.109,202,0.746,1.27,0.08342686,0,52.55,60.56,33.92,35.81
"2017-04-01 01:00:00",281731,0,0,-2.855,100,0.02359781,0,859.7518,0,108.9,2.102,206,0.756,1.279,0,0,52.49,60.56,33.91,35.81
"2017-04-01 01:10:00",281732,0,0,-2.938,100,0.2123803,0,859.7244,0,109.5,2.096,194,0.759,1.279,0,0,52.55,60.56,33.92,35.81
"2017-04-01 01:20:00",281733,0,0,-2.916,100,0.1022572,0,859.4167,0,109.9,2.092,200,0.751,1.281,0,0,52.49,60.56,33.91,35.81
"2017-04-01 01:30:00",281734,0,0,-2.786,100,0,0,859.1469,0.5,109.5,2.096,194,0.751,1.281,0.09859539,0,52.49,60.56,33.91,35.81
"2017-04-01 01:40:00",281735,0,0,-2.841,100,0,0,858.991,0,110,2.091,225,0.762,1.28,0.02275278,0,52.49,60.56,33.91,35.81
"2017-04-01 01:50:00",281736,0,0,-2.856,100,0.01179891,0,858.8792,0,109.5,2.096,214,0.756,1.28,0,0,52.55,60.56,33.92,35.81
"2017-04-01 02:00:00",281737,0,0,-2.833,100,0.003932969,0,858.9804,0,110.1,2.09,202,0.759,1.279,0.00379213,0,52.49,60.56,33.91,35.81
"2017-04-01 02:10:00",281738,0,0,-2.874,100,0.007865938,0,859.1385,0,110.2,2.089,221,0.753,1.279,0.03412917,0,52.55,60.56,33.92,35.81
"2017-04-01 02:20:00",281739,0,0,-3.027,100,0.2281122,0,859.0352,0,109.6,2.096,202,0.755,1.281,0,0,52.55,60.56,33.92,35.81
"2017-04-01 02:30:00",281740,0,0,-2.998,100,0.2123803,0,858.738,0,110.2,2.089,208,0.748,1.274,0,0,52.49,60.56,33.91,35.81
"2017-04-01 02:40:00",281741,0,0,-2.918,100,0,0,858.66,0.5,110.4,2.087,196,0.756,1.281,0.05308982,0,52.55,60.56,33.92,35.81
"2017-04-01 02:50:00",281742,0,0,-2.896,100,0,0,858.4852,0,110.9,2.082,194,0.754,1.279,0.0758426,0,52.49,60.56,33.91,35.81
"2017-04-01 03:00:00",281743,0,0,-2.904,100,0,0,858.4852,0,111.4,2.077,195,0.752,1.281,0.0379213,0,52.55,60.56,33.92,35.81
"2017-04-01 03:10:00",281744,0,0,-3.029,100,0.1612517,0,858.5399,0,111.7,2.075,194,0.757,1.279,0.00379213,0,52.55,60.56,33.92,35.81
"2017-04-01 03:20:00",281745,0,0,-3.107,100,0.1612517,0,858.4852,0,111.7,2.075,190,0.758,1.283,0,0,52.55,60.56,33.92,35.81
"2017-04-01 03:30:00",281746,0,0,-3.045,100,0.03539672,0,858.4366,0,111.8,2.074,209,0.755,1.283,0,0,52.49,60.56,33.91,35.81
"2017-04-01 03:40:00",281747,0,0,-3.073,100,0.1022572,0,858.3186,0,111.7,2.075,185,0.759,1.283,0,0,52.55,60.56,33.92,35.81
"2017-04-01 03:50:00",281748,0,0,-3.007,100,0,0,858.3713,0,111.8,2.073,194,0.756,1.281,0,0,52.49,60.56,33.91,35.81
"2017-04-01 04:00:00",281749,0,0,-2.991,100,0,0,858.2343,0,112,2.072,189,0.754,1.276,0.09101113,0,52.55,60.56,33.92,35.81
"2017-04-01 04:10:00",281750,0,0,-3.104,100,0.01966484,0,858.2322,0.5,112.2,2.07,180,0.754,1.283,0,0,52.55,60.56,33.92,35.81
"2017-04-01 04:20:00",281751,0,0,-3.083,100,0,0,858.308,0,112.6,2.066,193,0.754,1.283,0,0,52.55,60.56,33.92,35.81
"2017-04-01 04:30:00",281752,0,0,-3.15,100,0.125855,0,858.1479,0,112.3,2.069,194,0.753,1.283,0,0,52.55,60.56,33.92,35.81
"2017-04-01 04:40:00",281753,0,0,-3.248,100,0.2359781,0,858.1858,0,112.5,2.067,190,0.752,1.283,0,0,52.55,60.56,33.92,35.81
"2017-04-01 04:50:00",281754,0,0,-3.202,100,0.07865938,0,858.2554,0,112.4,2.068,192,0.749,1.283,0,0,52.55,60.56,33.92,35.81
"2017-04-01 05:00:00",281755,0,0,-3.277,100,0.1809166,0,858.443,0,112.4,2.069,195,0.743,1.283,0,0,52.55,60.56,33.92,35.81
"2017-04-01 05:10:00",281756,0,0,-3.269,100,0.1533858,0,858.2512,0,112.2,2.07,186,0.746,1.283,0,0,52.49,60.56,33.91,35.81
"2017-04-01 05:20:00",281757,0,0,-3.265,100,0.003932969,0,858.2532,0,112.7,2.065,193,0.736,1.281,0,0,52.55,60.56,33.92,35.81
"2017-04-01 05:30:00",281758,0,0,-3.26,100,0.1455198,0,858.2469,0,112.3,2.069,188,0.745,1.282,0.09101113,0.37,52.55,60.56,33.92,35.81
"2017-04-01 05:40:00",281759,0,0,-3.221,100,0.2359781,0,858.2469,0,112.6,2.066,196,0.739,1.283,0.5043533,2.137,52.55,60.56,33.92,35.81
"2017-04-01 05:50:00",281760,0,0,-3.113,100,0.762996,0,858.325,0,112.9,2.063,195,0.751,1.283,2.347329,3.147,52.55,60.56,33.92,35.81
"2017-04-01 06:00:00",281761,0,0,-3.174,100,1.628249,0,858.4725,0,112.8,2.064,182,0.737,1.283,5.005612,3.13,52.49,60.56,33.91,35.81
"2017-04-01 06:10:00",281762,0,0,-3.185,100,3.103112,0,858.4809,0.5,112.8,2.064,190,0.738,1.281,8.968388,2.897,52.55,60.56,33.92,35.81
"2017-04-01 06:20:00",281763,0,0,-3.299,100,4.695965,0,858.4852,0,112.8,2.064,186,0.749,1.283,13.20041,2.813,52.55,60.56,33.92,35.81
"2017-04-01 06:30:00",281764,0,0,-3.286,100,5.856191,0,858.4324,0,113,2.063,194,0.718,1.283,17.42105,2.974,52.49,60.56,33.91,35.81
"2017-04-01 06:40:00",281765,0,0,-3.22,100,7.059679,0,858.4387,0,112.9,2.063,193,0.732,1.282,21.59618,3.058,52.55,60.56,33.92,35.81
"2017-04-01 06:50:00",281766,0,0,-3.197,100,9.462724,0,858.3376,0,112.9,2.063,193,0.753,1.283,28.38409,3.003,52.55,60.56,33.92,35.81
"2017-04-01 07:00:00",281767,0,0,-3.128,100,12.99846,0,858.3798,0,113,2.062,180,0.75,1.282,39.11203,3.009,52.55,60.56,33.92,35.81
"2017-04-01 07:10:00",281768,0,0,-3.038,100,15.00821,0,858.3903,0,113,2.061,189,0.744,1.276,45.6307,3.04,52.55,60.56,33.92,35.81
"2017-04-01 07:20:00",281769,0,0,-2.996,100,14.29241,0,858.4324,0,113,2.062,176,0.732,1.267,41.95234,2.936,52.49,60.56,33.91,35.81
"2017-04-01 07:30:00",281770,0,0,-3.026,100,16.22743,0,858.4219,0,113,2.062,185,0.742,1.27,46.55977,2.869,52.55,60.56,33.92,35.81
"2017-04-01 07:40:00",281771,0,0,-3.024,100,15.44477,0,858.3544,0,112.7,2.064,179,0.734,1.271,44.92537,2.909,52.55,60.62,33.92,35.82
"2017-04-01 07:50:00",281772,0,0,-3.05,100,16.35722,0,858.2554,0,112.9,2.063,188,0.728,1.269,46.65837,2.853,52.55,60.56,33.92,35.81
"2017-04-01 08:00:00",281773,0,0,-3.134,100,16.74265,0,858.2701,0,112.8,2.064,179,0.73,1.263,46.89348,2.801,52.55,60.56,33.92,35.81
"2017-04-01 08:10:00",281774,0,0,-3.118,100,19.96375,0,858.4578,0,112.7,2.064,184,0.735,1.27,56.63546,2.834,52.55,60.56,33.92,35.81
"2017-04-01 08:20:00",281775,0,0,-2.997,100,24.76197,0,858.4852,0,113,2.061,193,0.748,1.274,71.35273,2.881,52.55,60.56,33.92,35.81
"2017-04-01 08:30:00",281776,0,0,-2.842,100,28.75393,0,858.4852,0,112.9,2.062,189,0.729,1.276,83.90467,2.918,52.55,60.62,33.92,35.82
"2017-04-01 08:40:00",281777,0,0,-2.714,100,30.13047,0,858.4852,0,112.7,2.063,188,0.71,1.281,87.73093,2.913,52.55,60.62,33.92,35.82
"2017-04-01 08:50:00",281778,0,0,-2.83,100,27.87295,0,858.4852,0,112.7,2.064,188,0.7,1.283,78.24682,2.806,52.55,60.62,33.92,35.82
"2017-04-01 09:00:00",281779,0,0,-2.954,100,31.17664,0,858.4366,0,112.7,2.064,188,0.727,1.284,87.44653,2.805,52.55,60.56,33.92,35.81
"2017-04-01 09:10:00",281780,0,0,-2.957,100,34.98769,0,858.4852,0,112.5,2.066,184,0.733,1.284,99.28176,2.836,52.55,60.62,33.92,35.82
"2017-04-01 09:20:00",281781,0,0,-2.905,100,35.39672,0,858.5336,0,112.6,2.065,189,0.743,1.284,100.245,2.832,52.55,60.62,33.92,35.82
"2017-04-01 09:30:00",281782,0,0,-2.899,100,37.44186,0,858.6242,0,112.6,2.065,184,0.757,1.284,107.2756,2.865,52.55,60.62,33.92,35.82
"2017-04-01 09:40:00",281783,0,0,-2.712,100,39.37295,0,858.8476,0,112.5,2.065,188,0.764,1.284,114.2379,2.899,52.55,60.56,33.92,35.81
"2017-04-01 09:50:00",281784,0,0,-2.69,100,41.23718,0,858.991,0,112.6,2.064,189,0.766,1.284,117.2147,2.842,52.55,60.62,33.92,35.82
"2017-04-01 10:00:00",281785,0,0,-2.623,100,38.29531,0,858.9298,0,112.6,2.064,189,0.766,1.284,108.7886,2.841,52.55,60.56,33.92,35.81
"2017-04-01 10:10:00",281786,0,0,-2.484,100,41.81139,0,858.7664,0,112.4,2.065,189,0.766,1.284,121.1055,2.895,52.55,60.62,33.92,35.82
"2017-04-01 10:20:00",281787,0,0,-2.442,100,43.14467,0,858.7751,0,112.4,2.065,189,0.766,1.284,123.5249,2.863,52.55,60.62,33.92,35.82
"2017-04-01 10:30:00",281788,0.126,8.56,-2.472,100,49.9367,0,858.6826,0,112.2,2.067,195,0.764,1.276,142.1398,2.846,52.55,60.62,33.92,35.82
"2017-04-01 10:40:00",281789,0.389,17.11,-2.315,100,56.18962,0,858.6532,0,112.7,2.061,262,0.75,1.248,164.9291,2.935,52.55,60.62,33.92,35.82
"2017-04-01 10:50:00",281790,0.379,2.571,-2.093,100,57.24296,0,858.6708,0,111.9,2.07,209,0.701,1.227,174.6423,3.051,52.55,60.62,33.92,35.82
"2017-04-01 11:00:00",281791,0.683,14.5,-2.236,100,50.05102,0,858.6591,0,111.8,2.071,222,0.669,1.186,151.4308,3.024,52.55,60.62,33.92,35.82
"2017-04-01 11:10:00",281792,0.667,10.75,-2.254,100,48.98178,0,858.5789,0,111.2,2.076,204,0.644,1.167,143.7458,2.937,52.55,60.62,33.92,35.82
"2017-04-01 11:20:00",281793,0.24,24.17,-2.059,100,45.03471,0,858.3973,0,111.2,2.076,184,0.626,1.145,134.755,2.992,52.55,60.56,33.92,35.81
"2017-04-01 11:30:00",281794,0.461,21.41,-2.046,100,46.68678,0,858.3966,0,110.9,2.079,192,0.609,1.126,141.6602,3.035,52.6,60.62,33.94,35.82
"2017-04-01 11:40:00",281795,0.362,19.82,-1.975,100,43.34315,0,858.1984,0,111.2,2.075,233,0.599,1.116,131.8859,3.044,52.55,60.62,33.92,35.82
"2017-04-01 11:50:00",281796,0.274,321.4,-2.152,100,33.54094,0,858.1457,0,111.3,2.075,257,0.598,1.113,98.96426,2.948,52.55,60.62,33.92,35.82
"2017-04-01 12:00:00",281797,0.12,310,-2.1,100,29.37325,0,858.152,0,110.8,2.08,232,0.597,1.112,82.14381,2.795,52.55,60.62,33.92,35.82
"2017-04-01 12:10:00",281798,0.181,322.8,-2.163,100,28.37064,0,858.1752,0,111.1,2.077,254,0.594,1.112,75.03209,2.644,52.55,60.62,33.92,35.82
"2017-04-01 12:20:00",281799,0.172,311.3,-2.168,100,26.82551,0,858.3817,0,110.7,2.081,241,0.593,1.112,69.53156,2.579,52.55,60.56,33.92,35.81
"2017-04-01 12:30:00",281800,0.141,309,-2.135,100,44.96605,0,858.3206,0,110.3,2.085,211,0.6,1.113,123.407,2.736,52.55,60.62,33.92,35.82
"2017-04-01 12:40:00",281801,0.321,16.8,-2.03,100,52.87648,0,858.211,0,110.5,2.083,227,0.603,1.112,153.8891,2.909,52.55,60.56,33.92,35.81
"2017-04-01 12:50:00",281802,0.374,38.27,-2.041,100,51.70485,0,858.1415,0,110.8,2.08,248,0.601,1.111,150.1665,2.904,52.55,60.62,33.92,35.82
"2017-04-01 13:00:00",281803,0.466,3.036,-1.943,100,46.39323,0,858.1667,0,110.6,2.081,249,0.615,1.115,135.4467,2.919,52.55,60.56,33.92,35.81
"2017-04-01 13:10:00",281804,0.281,315.6,-1.788,100,46.27921,0,858.3396,0,110.1,2.086,212,0.66,1.12,134.5293,2.907,52.55,60.62,33.92,35.82
"2017-04-01 13:20:00",281805,0.378,306.4,-1.908,100,45.01715,0,858.3965,0,109.9,2.088,195,0.664,1.118,125.6663,2.791,52.6,60.62,33.94,35.82
"2017-04-01 13:30:00",281806,0.18,285.4,-1.912,100,41.17988,0,858.3248,0,109.8,2.089,196,0.677,1.114,112.1861,2.724,52.55,60.62,33.92,35.82
"2017-04-01 13:40:00",281807,0.244,292,-1.945,100,39.55612,0,858.3965,0,109.6,2.091,190,0.677,1.124,105.8402,2.678,52.55,60.62,33.92,35.82
"2017-04-01 13:50:00",281808,0.324,294.5,-1.957,100,38.58108,0,858.3649,0,109.7,2.091,189,0.678,1.115,100.6392,2.607,52.55,60.62,33.92,35.82
"2017-04-01 14:00:00",281809,0.132,281.7,-1.852,100,32.67184,0,858.3965,0,109.6,2.091,189,0.675,1.117,83.56904,2.558,52.55,60.62,33.92,35.82
"2017-04-01 14:10:00",281810,0.152,307.1,-1.861,100,32.65611,0,858.3965,0,109.5,2.092,193,0.66,1.114,83.89884,2.568,52.55,60.62,33.92,35.82
"2017-04-01 14:20:00",281811,0.261,303.3,-1.934,100,37.16176,0,858.3732,0,109.3,2.094,188,0.654,1.114,96.32521,2.592,52.55,60.62,33.92,35.82
"2017-04-01 14:30:00",281812,0.176,14.75,-1.781,100,37.74757,0,858.3923,0,109.4,2.093,176,0.648,1.114,99.6801,2.641,52.55,60.62,33.92,35.82
"2017-04-01 14:40:00",281813,0.216,357.5,-1.693,100,34.24056,0,858.388,0,109.3,2.094,175,0.658,1.118,91.59425,2.676,52.55,60.62,33.92,35.82
"2017-04-01 14:50:00",281814,0.244,14.37,-1.799,100,34.55902,0,858.2911,0,109.2,2.095,183,0.657,1.111,91.50706,2.648,52.55,60.62,33.92,35.82
"2017-04-01 15:00:00",281815,0.342,34.76,-1.769,100,28.24482,0,858.1752,0,109.2,2.094,175,0.66,1.112,71.71887,2.539,52.55,60.62,33.92,35.82
"2017-04-01 15:10:00",281816,0.047,259.5,-1.542,100,25.82687,0,858.1436,0,109,2.096,176,0.63,1.112,65.58151,2.538,52.55,60.62,33.92,35.82
"2017-04-01 15:20:00",281817,0.299,326.2,-1.792,100,23.55046,0,858.1436,0,109,2.097,174,0.63,1.111,57.68898,2.448,52.55,60.62,33.92,35.82
"2017-04-01 15:30:00",281818,0.208,291.1,-1.846,100,23.00003,0,858.1436,0,109,2.097,176,0.631,1.111,53.50011,2.326,52.6,60.62,33.94,35.82
"2017-04-01 15:40:00",281819,0.255,309.2,-1.897,100,22.96072,0,858.0762,0,109,2.097,176,0.603,1.112,51.0626,2.222,52.55,60.62,33.92,35.82
"2017-04-01 15:50:00",281820,0.167,334.6,-1.883,100,21.11678,0,857.9625,0,108.9,2.098,175,0.596,1.114,45.1034,2.134,52.6,60.62,33.94,35.82
"2017-04-01 16:00:00",281821,0.174,359.9,-1.935,100,18.36071,0,857.8907,0,108.9,2.098,175,0.599,1.121,38.49597,2.095,52.55,60.62,33.92,35.82
"2017-04-01 16:10:00",281822,0.128,295.6,-1.876,100,15.24686,0,858.0298,0,109,2.098,176,0.612,1.134,31.5701,2.07,52.55,60.62,33.92,35.82
"2017-04-01 16:20:00",281823,0.246,6.267,-1.953,100,11.94822,0,858.1057,0,108.9,2.099,176,0.624,1.146,23.85575,2.002,52.55,60.62,33.92,35.82
"2017-04-01 16:30:00",281824,0.394,288.7,-2.039,100,9.549928,0,858.1647,0,108.8,2.1,176,0.654,1.161,20.28478,2.124,52.55,60.62,33.92,35.82
"2017-04-01 16:40:00",281825,0.244,275.4,-2.1,100,8.107019,0,858.2299,0,108.8,2.1,175,0.676,1.184,18.02544,2.224,52.55,60.62,33.92,35.82
"2017-04-01 16:50:00",281826,0.407,287.9,-2.159,100,8.445148,0,858.1836,0,108.7,2.101,176,0.678,1.196,19.10964,2.263,52.55,60.62,33.92,35.82
"2017-04-01 17:00:00",281827,0.277,310.3,-2.173,100,7.776947,0,858.1563,0,108.7,2.101,174,0.684,1.202,18.19646,2.34,52.55,60.62,33.92,35.82
"2017-04-01 17:10:00",281828,0.093,201.7,-2.069,100,6.731208,0,858.1436,0,108.8,2.1,175,0.687,1.206,16.32777,2.425,52.6,60.62,33.94,35.82
"2017-04-01 17:20:00",281829,0.125,313.5,-2.068,100,6.373672,0,858.1604,0,108.7,2.101,176,0.698,1.216,15.10767,2.367,52.55,60.56,33.92,35.81
"2017-04-01 17:30:00",281830,0.105,199.1,-2.058,100,4.683157,0,858.2574,0,108.6,2.102,176,0.71,1.229,9.360753,1.997,52.55,60.62,33.92,35.82
"2017-04-01 17:40:00",281831,0.274,338.9,-2.169,100,3.200943,0,858.3982,0,108.6,2.102,175,0.726,1.245,5.353653,1.658,52.55,60.62,33.92,35.82
"2017-04-01 17:50:00",281832,0.116,263.5,-2.185,100,2.166871,0,858.4084,0,108.6,2.102,176,0.742,1.261,3.048598,1.389,52.55,60.62,33.92,35.82
"2017-04-01 18:00:00",281833,0.146,1.262,-2.164,100,1.164081,0,858.5596,0,108.6,2.102,176,0.749,1.267,0.7242444,0.575,52.55,60.62,33.92,35.82
"2017-04-01 18:10:00",281834,0.074,288.1,-2.194,100,0.727578,0,858.6788,0,108.7,2.102,177,0.757,1.277,0.0834237,0.111,52.55,60.62,33.92,35.82
"2017-04-01 18:20:00",281835,0.02,93.7,-2.22,100,0.3224999,0,858.6959,0,108.7,2.102,176,0.759,1.282,0,0,52.55,60.62,33.92,35.82
"2017-04-01 18:30:00",281836,0.173,288.3,-2.301,100,0.2359774,0,858.726,0,108.6,2.103,176,0.753,1.284,0,0,52.55,60.56,33.92,35.81
"2017-04-01 18:40:00",281837,0.439,299.3,-2.358,100,0.1730505,0,858.7679,0,108.6,2.103,176,0.729,1.284,0,0,52.55,60.62,33.92,35.82
"2017-04-01 18:50:00",281838,0.52,309.1,-2.402,100,0.125855,0,858.8781,0,108.6,2.103,175,0.726,1.283,0,0,52.6,60.62,33.94,35.82
"2017-04-01 19:00:00",281839,0.05,302.8,-2.356,100,0,0,858.967,0,108.5,2.104,176,0.736,1.278,0,0,52.55,60.62,33.92,35.82
"2017-04-01 19:10:00",281840,0.05,12.01,-2.341,100,0,0,858.9909,0,108.5,2.104,176,0.734,1.281,0,0,52.6,60.56,33.94,35.81
"2017-04-01 19:20:00",281841,0,0,-2.392,100,0,0,859.1574,0,108.5,2.105,176,0.733,1.284,0,0,52.55,60.62,33.92,35.82
"2017-04-01 19:30:00",281842,0.005,4.705,-2.472,100,0,0,859.2481,0,108.5,2.105,176,0.738,1.288,0,0,52.55,60.56,33.92,35.81
"2017-04-01 19:40:00",281843,0.101,14.67,-2.475,100,0,0,859.2923,0,108.4,2.106,176,0.74,1.284,0,0,52.49,60.62,33.91,35.82
"2017-04-01 19:50:00",281844,0.164,9.29,-2.577,100,0,0,859.4399,0,108.4,2.106,177,0.746,1.283,0,0,52.49,60.62,33.91,35.82
"2017-04-01 20:00:00",281845,0.205,358.5,-2.669,100,0.1022572,0,859.4968,0,108.4,2.106,176,0.744,1.275,0,0,52.55,60.62,33.92,35.82
"2017-04-01 20:10:00",281846,0.001,36.96,-2.668,100,0.05112859,0,859.4968,0,108.4,2.106,177,0.737,1.265,0,0,52.55,60.62,33.92,35.82
"2017-04-01 20:20:00",281847,0.089,83.6,-2.637,100,0.01573188,0,859.4968,0,108.4,2.106,177,0.732,1.255,0,0,52.49,60.62,33.91,35.82
"2017-04-01 20:30:00",281848,0.024,77.32,-2.711,100,0.2281122,0,859.5031,0,108.4,2.107,177,0.738,1.25,0,0,52.55,60.62,33.92,35.82
"2017-04-01 20:40:00",281849,0.018,160.7,-2.866,100,0.2359781,0,859.4968,0,108.4,2.107,177,0.738,1.259,0,0,52.55,60.56,33.92,35.81
"2017-04-01 20:50:00",281850,0.114,1.57,-2.903,100,0.2084474,0,859.4968,0,108.4,2.108,177,0.743,1.272,0,0,52.55,60.56,33.92,35.81
"2017-04-01 21:00:00",281851,0.009,26.5,-2.963,100,0,0,859.4926,0,108.4,2.108,177,0.73,1.263,0,0,52.55,60.62,33.92,35.82
"2017-04-01 21:10:00",281852,0.002,23.82,-3.087,100,0.1415869,0,859.4968,0,108.3,2.109,177,0.735,1.264,0,0,52.49,60.62,33.91,35.82
"2017-04-01 21:20:00",281853,0,0,-3.236,100,0.2241792,0,859.4968,0,108.3,2.109,177,0.734,1.26,0,0,52.55,60.62,33.92,35.82
"2017-04-01 21:30:00",281854,0.067,54.03,-3.125,100,0,0,859.4968,0,108.3,2.109,177,0.728,1.265,0,0,52.55,60.56,33.92,35.81
"2017-04-01 21:40:00",281855,0.385,355,-3.137,100,0.04719562,0,859.4968,0,108.5,2.108,177,0.739,1.267,0,0,52.55,60.62,33.92,35.82
"2017-04-01 21:50:00",281856,0.091,341.3,-3.194,100,0.08652531,0,859.4968,0,108.3,2.109,177,0.738,1.271,0,0,52.55,60.62,33.92,35.82
"2017-04-01 22:00:00",281857,0.32,359,-3.138,100,0,0,859.5115,0,108.3,2.109,177,0.735,1.266,0,0,52.55,60.56,33.92,35.81
"2017-04-01 22:10:00",281858,0.445,342,-3.262,100,0.1769836,0,859.7286,0,108.3,2.11,176,0.74,1.276,0,0,52.55,60.62,33.92,35.82
"2017-04-01 22:20:00",281859,0.246,350.4,-3.263,100,0.1769836,0,859.8172,0,108.3,2.11,177,0.759,1.281,0,0,52.49,60.62,33.91,35.82
"2017-04-01 22:30:00",281860,0.205,8.67,-3.232,100,0.03539672,0,860.0005,0,108.2,2.11,178,0.754,1.282,0,0,52.49,60.62,33.91,35.82
"2017-04-01 22:40:00",281861,0.558,264.9,-3.305,100,0.1809166,0,860.0027,0,108.4,2.109,177,0.761,1.283,0,0,52.55,60.62,33.92,35.82
"2017-04-01 22:50:00",281862,0.241,267.4,-3.332,100,0.07079343,0,860.0027,0,108.3,2.11,177,0.757,1.283,0,0,52.49,60.56,33.91,35.81
"2017-04-01 23:00:00",281863,0.216,36.15,-3.34,100,0,0,860.0027,0,108.3,2.11,181,0.758,1.283,0.00379213,0,52.55,60.62,33.92,35.82
"2017-04-01 23:10:00",281864,0.335,346.6,-3.347,100,0.01966484,0,860.0027,0,108.3,2.11,181,0.758,1.283,0,0,52.55,60.62,33.92,35.82
"2017-04-01 23:20:00",281865,0.074,342.8,-3.45,100,0.129788,0,860.0027,0,108.3,2.11,182,0.76,1.283,0,0,52.55,60.62,33.92,35.82
"2017-04-01 23:30:00",281866,0.153,23.35,-3.406,100,0,0,860.0153,0,108.3,2.11,182,0.758,1.283,0.01896065,0,52.49,60.62,33.91,35.82
"2017-04-01 23:40:00",281867,0.422,177.6,-3.496,100,0.09439125,0,860.0027,0,108.3,2.111,183,0.761,1.283,0,0,52.55,60.62,33.92,35.82
"2017-04-01 23:50:00",281868,0.249,189.8,-3.656,100,0.125855,0,860.0027,0,108.3,2.111,182,0.762,1.283,0,0,52.55,60.62,33.92,35.82
